GW3457 Weather Reports


time (UTC)temp
F
wind
direction
speed
knots
gust
knots
rain 1hr
in
rain 24hr
in
rain mn
in
humidity
%
barometer
mb
20260503224546 60 14 5.2 13.9 0.00 0.00 0.00 28 1013.5
20260503223048 61 26 3.5 13.9 0.00 0.00 0.00 27 1013.5
20260503221547 61 21 4.3 15.6 0.00 0.00 0.00 28 1013.7
20260503220049 61 19 7.0 14.8 0.00 0.00 0.00 28 1013.8
20260503214547 61 17 8.7 13.0 0.00 0.00 0.00 27 1013.7
20260503213047 61 17 7.8 20.9 0.00 0.00 0.00 27 1014.1
20260503211556 61 15 6.1 17.4 0.00 0.00 0.00 28 1013.8
20260503210047 61 18 6.1 17.4 0.00 0.00 0.00 27 1013.9
20260503204555 61 15 5.2 12.2 0.00 0.00 0.00 27 1013.8
20260503203051 61 21 7.8 16.5 0.00 0.00 0.00 27 1014.0
20260503201547 61 19 7.0 17.4 0.00 0.00 0.00 27 1014.0
20260503200050 61 19 4.3 14.8 0.00 0.00 0.00 28 1014.2
20260503194549 60 19 4.3 13.9 0.00 0.00 0.00 26 1014.4
20260503193102 61 17 6.1 13.9 0.00 0.00 0.00 28 1014.5
20260503191550 60 15 1.7 13.0 0.00 0.00 0.00 30 1014.6
20260503184543 59 22 7.0 16.5 0.00 0.00 0.00 28 1015.1
20260503183057 60 15 3.5 15.6 0.00 0.00 0.00 29 1015.1
20260503181541 59 19 5.2 17.4 0.00 0.00 0.00 28 1015.2
20260503180056 58 17 4.3 13.9 0.00 0.00 0.00 28 1015.4
20260503174550 58 13 5.2 14.8 0.00 0.00 0.00 28 1015.5
20260503173103 57 19 4.3 13.0 0.00 0.00 0.00 29 1015.3
20260503171550 55 18 7.0 21.7 0.00 0.00 0.00 30 1015.8
20260503081550 41 132 3.5 9.6 0.00 0.00 0.00 61 1015.5
20260503071605 42 123 3.5 7.8 0.00 0.00 0.00 62 1015.0
20260503054547 42 125 0.0 4.3 0.00 0.00 0.00 67 1014.9
20260503053052 42 134 0.9 6.1 0.00 0.00 0.00 67 1015.1
20260503051556 42 142 0.9 7.8 0.00 0.00 0.00 67 1015.1
20260503050052 42 155 0.9 3.5 0.00 0.00 0.00 68 1015.1
20260503044544 42 135 0.9 3.5 0.00 0.00 0.00 68 1015.2
20260503043052 42 108 0.9 4.3 0.00 0.00 0.00 69 1015.2
20260503041541 41 166 0.0 2.6 0.00 0.00 0.00 70 1015.3
20260503040040 41 183 0.0 1.7 0.00 0.00 0.00 70 1015.3
20260503034549 42 0 0.0 0.9 0.00 0.00 0.00 69 1015.4
20260503033046 42 0 0.0 0.9 0.00 0.00 0.00 67 1015.2
20260503031544 43 0 0.0 0.9 0.00 0.00 0.00 65 1015.2
20260503030046 44 0 0.0 1.7 0.00 0.00 0.00 64 1015.5
20260503024557 45 0 0.0 0.9 0.00 0.00 0.00 61 1015.6
20260503023048 45 0 0.0 0.9 0.00 0.00 0.00 59 1015.5
20260503021551 46 0 0.9 3.5 0.00 0.00 0.00 55 1015.5
20260503020052 46 360 0.0 7.8 0.00 0.00 0.00 54 1015.5
20260503014620 46 360 0.9 2.6 0.00 0.00 0.00 55 1015.3
20260503013049 47 0 0.9 4.3 0.00 0.00 0.00 55 1015.1
20260503011601 47 360 1.7 7.0 0.00 0.00 0.00 56 1015.0
20260503010054 47 0 0.0 2.6 0.00 0.00 0.00 56 1014.6
20260503004559 48 360 0.0 4.3 0.00 0.00 0.00 53 1014.4
20260503003058 49 0 0.0 2.6 0.00 0.00 0.00 52 1014.1
20260503001544 49 360 1.7 4.3 0.00 0.00 0.00 51 1014.0
20260503000055 50 360 3.5 8.7 0.00 0.00 0.00 50 1013.8
20260502234552 50 360 1.7 9.6 0.00 0.00 0.00 48 1013.6
20260502233047 51 44 1.7 5.2 0.00 0.00 0.00 47 1013.4
20260502231549 52 57 2.6 6.1 0.00 0.00 0.00 44 1013.3
20260502230052 52 0 0.9 6.1 0.00 0.00 0.00 44 1013.2
20260502224604 53 43 0.9 5.2 0.00 0.00 0.00 43 1013.1